{"data":{"norad_id":49748,"intl_designator":"2021-115AA","name":"STARLINK-3248","alt_names":[],"object_type":"PAYLOAD","status":"ACTIVE","operator":null,"country":"US","launch_date":"2021-12-02","launch_site_code":"AFETR","launch_vehicle":null,"mission":null,"orbit_class":"UNKNOWN","rcs_meters":null,"size_class":null,"mass_kg":null,"dimensions":null,"purposes":["comms"],"wikipedia_slug":null,"has_3d_model":false,"image_url":null,"decayed_at":null,"tle_current":{"epoch":"2026-09-19T19:07:46.864416Z","epoch_age_seconds":86577,"freshness":"FRESH","line1":"1 49748U 21115AA  26262.79707019  .00000652  00000+0  29584-4 0  9994","line2":"2 49748  53.1617 350.7212 0001134  78.3850 281.7281 15.35400376264934","mean_motion":15.35400376,"eccentricity":0.0001134,"inclination_deg":53.1617,"raan_deg":350.7212,"arg_perigee_deg":78.385,"mean_anomaly_deg":281.7281,"bstar":2.9584e-5,"rev_number":26493,"period_min":93.786612437302,"perigee_km":458.95611211202,"apogee_km":460.50694069381,"semimajor_km":6837.8685264029,"source":"CELESTRAK","updated_at":"2026-09-20T09:00:39.407942Z"}}}